TimeEDT,TemperatureF,Dew PointF,Humidity,Sea Level PressureIn,VisibilityMPH,Wind Direction,Wind SpeedMPH,Gust SpeedMPH,PrecipitationIn,Events,Conditions,WindDirDegrees,DateUTC
12:53 AM,69.1,68.0,96,29.99,5.0,ENE,3.5,-,0.00,Rain,Light Rain,70,2013-05-02 04:53:00
1:04 AM,69.8,66.2,88,29.98,6.0,ENE,3.5,-,0.01,Rain,Light Rain,70,2013-05-02 05:04:00
1:27 AM,69.8,66.2,88,29.97,10.0,ENE,5.8,-,0.01,,Mostly Cloudy,70,2013-05-02 05:27:00
1:53 AM,66.9,64.0,90,29.97,8.0,ENE,8.1,-,0.01,Rain,Light Rain,60,2013-05-02 05:53:00
2:53 AM,66.9,64.9,93,29.95,10.0,East,3.5,-,N/A,,Overcast,80,2013-05-02 06:53:00
3:26 AM,66.2,64.4,94,29.94,10.0,Variable,4.6,-,N/A,,Overcast,0,2013-05-02 07:26:00
3:33 AM,66.2,64.4,94,29.94,10.0,ENE,4.6,-,N/A,,Overcast,60,2013-05-02 07:33:00
3:53 AM,68.0,64.9,90,29.94,10.0,ENE,4.6,-,N/A,,Overcast,70,2013-05-02 07:53:00
4:28 AM,66.2,64.4,94,29.94,3.0,East,4.6,-,0.00,Rain,Light Rain,80,2013-05-02 08:28:00
4:43 AM,66.2,64.4,94,29.93,5.0,ENE,9.2,-,0.01,Rain,Light Rain,60,2013-05-02 08:43:00
4:53 AM,66.0,64.0,93,29.94,6.0,ENE,4.6,-,0.01,,Overcast,60,2013-05-02 08:53:00
5:15 AM,66.2,64.4,94,29.94,10.0,ENE,5.8,-,N/A,,Mostly Cloudy,70,2013-05-02 09:15:00
5:53 AM,66.0,64.0,93,29.94,10.0,Variable,3.5,-,N/A,,Mostly Cloudy,0,2013-05-02 09:53:00
6:00 AM,66.2,64.4,94,29.94,10.0,ENE,4.6,-,N/A,,Mostly Cloudy,70,2013-05-02 10:00:00
6:43 AM,66.2,64.4,94,29.94,10.0,NE,3.5,-,N/A,,Mostly Cloudy,50,2013-05-02 10:43:00
6:53 AM,66.9,64.9,93,29.94,10.0,ENE,3.5,-,N/A,,Mostly Cloudy,60,2013-05-02 10:53:00
7:25 AM,66.2,64.4,94,29.94,10.0,NE,6.9,-,N/A,,Overcast,50,2013-05-02 11:25:00
7:53 AM,68.0,64.9,90,29.94,10.0,NE,5.8,-,N/A,,Overcast,50,2013-05-02 11:53:00
8:53 AM,69.1,64.9,87,29.95,10.0,NE,6.9,-,N/A,,Overcast,50,2013-05-02 12:53:00
9:53 AM,71.6,66.2,83,29.95,10.0,ENE,8.1,-,N/A,,Overcast,70,2013-05-02 13:53:00
10:21 AM,71.6,66.2,83,29.94,10.0,ENE,9.2,-,N/A,,Overcast,70,2013-05-02 14:21:00
10:53 AM,72.0,66.9,84,29.95,10.0,ENE,6.9,-,N/A,,Overcast,70,2013-05-02 14:53:00
11:00 AM,73.4,66.2,78,29.95,10.0,NE,6.9,-,N/A,,Overcast,50,2013-05-02 15:00:00
11:48 AM,73.4,68.0,83,29.94,10.0,ENE,3.5,-,N/A,,Overcast,60,2013-05-02 15:48:00
11:53 AM,75.0,68.0,79,29.94,10.0,NE,5.8,-,N/A,,Overcast,50,2013-05-02 15:53:00
12:53 PM,77.0,68.0,74,29.91,10.0,East,3.5,-,N/A,,Overcast,90,2013-05-02 16:53:00
1:53 PM,78.1,69.1,74,29.90,10.0,Variable,5.8,-,N/A,,Overcast,0,2013-05-02 17:53:00
2:53 PM,78.1,69.1,74,29.88,10.0,SSW,8.1,-,N/A,,Mostly Cloudy,210,2013-05-02 18:53:00
3:26 PM,78.8,69.8,74,29.88,10.0,SW,9.2,-,N/A,,Mostly Cloudy,230,2013-05-02 19:26:00
3:53 PM,77.0,69.1,76,29.88,10.0,SW,5.8,-,N/A,Thunderstorm,Thunderstorm,220,2013-05-02 19:53:00
4:53 PM,78.1,66.0,66,29.84,10.0,Calm,Calm,-,N/A,,Overcast,0,2013-05-02 20:53:00
5:53 PM,77.0,68.0,74,29.84,10.0,Variable,4.6,-,N/A,,Overcast,0,2013-05-02 21:53:00
6:53 PM,73.0,69.1,87,29.84,10.0,Calm,Calm,-,0.00,,Overcast,0,2013-05-02 22:53:00
7:53 PM,73.9,69.1,85,29.84,10.0,NNE,3.5,-,N/A,,Mostly Cloudy,30,2013-05-02 23:53:00
8:53 PM,73.0,69.1,87,29.85,10.0,NE,4.6,-,N/A,,Mostly Cloudy,40,2013-05-03 00:53:00
9:14 PM,73.4,69.8,88,29.85,10.0,ENE,3.5,-,N/A,,Mostly Cloudy,70,2013-05-03 01:14:00
9:53 PM,73.0,69.1,87,29.86,10.0,ENE,5.8,-,N/A,,Overcast,60,2013-05-03 01:53:00
10:09 PM,71.6,69.8,94,29.86,10.0,NE,4.6,-,N/A,,Overcast,40,2013-05-03 02:09:00
10:35 PM,71.6,69.8,94,29.86,10.0,Calm,Calm,-,N/A,,Scattered Clouds,0,2013-05-03 02:35:00
10:53 PM,72.0,69.1,91,29.86,10.0,Calm,Calm,-,N/A,,Scattered Clouds,0,2013-05-03 02:53:00
11:53 PM,71.1,69.1,93,29.85,10.0,Calm,Calm,-,N/A,,Scattered Clouds,0,2013-05-03 03:53:00